Location: Guadanolo
(41.9167°N, 12.9333°E)
Time: 10:58:16
(UTC+00:00)

Cosmos 2251 Rocket - Pass Details

Date: 16 September 2019
Orbit: 764 x 792 km, 74.0° (Epoch: 22 October)

Event Time Altitude Azimuth Distance (km) Brightness Sun altitude
Rises 18:29:00 0° 338° (NNW) 3,299 7.4 -14.0°
Reaches altitude 10° 18:31:25 10° 336° (NNW) 2,366 6.6 -14.5°
Maximum altitude 18:36:46 71° 253° (WSW) 840 3.8 -15.4°
Drops below altitude 10° 18:42:05 10° 171° (S) 2,347 5.7 -16.4°
Enters shadow 18:43:34 - 169° (S) 2,921 6.2 -16.6°
